User: anonymous   Login
Location: Krasnoyarskiy Pitomnik
(51.1333°N, 71.6167°E)
Time: 09:52:12
(UTC+00:00)
Language:

ISS - Orbit

View from above orbital plane
View from above orbital plane
View from above satellite
View from above satellite

Ground track
Ground track

The orbit data is extracted from the following two-line orbital elements,

1 25544U 98067A   24104.01115097  .00014443  00000-0  25929-3 0  9991
2 25544  51.6402 278.5645 0004682  64.3926  80.0740 15.50137232448438
Epoch (UTC): 13 April 2024 00:16:03
Eccentricity: 0.0004682
inclination: 51.6402°
perigee height: 413 km
apogee height: 419 km
right ascension of ascending node: 278.5645°
argument of perigee: 64.3926°
revolutions per day: 15.50137232
mean anomaly at epoch: 80.0740°
orbit number at epoch: 44843

The dashed part of the orbit path shows where the satellite is in the earth's shadow,  

DLR